Regional Weather Roundup
Issued by NWS Goodland, KS

Home | Current Version | Previous Version | Text Only | Print | Product List | Glossary On
Versions: 1 2 3 4 5 6 7 8 9 10 11 12 13 14 15 16 17 18 19 20 21 22 23 24 25 26 27 28 29 30 31 32 33 34 35 36 37 38 39 40 41 42 43 44 45 46 47 48 49 50
000
ASUS43 KGLD 241308
RWRGLD

GOODLAND FORECAST AREA HOURLY WEATHER ROUNDUP
NATIONAL WEATHER SERVICE GOODLAND KS
700 AM MDT THU JUL 24 2014

...OFFICIAL OBSERVATIONS...

CITY           SKY/WX    TMP DP  RH WIND       PRES   REMARKS
GOODLAND KS    SUNNY     69  67  93 S13       30.09S
HILL CITY KS   SUNNY     67  64  90 E7        30.07F
IMPERIAL NEB   SUNNY     69  66  90 SE8       30.04S FOG
MCCOOK NEB     SUNNY     68  64  87 SE8       30.04F
AKRON CO       SUNNY     73  51  46 S10       30.10S
BURLINGTON CO  SUNNY     68  61  78 S9        30.12S
LIMON CO       MOSUNNY   62  56  80 SE7       30.19S
$$

...UNOFFICIAL OBSERVATIONS...

CITY           SKY/WX    TMP DP  RH WIND       PRES   REMARKS
COLBY KS       SUNNY     72  70  94 S12G17    30.08F
GOVE KS          N/A     70  32  24 MISG        N/A
LENORA KS        N/A     69  32  25 MISG        N/A
NORTON KS      SUNNY     68  61  77 SE10      30.07S
SHARON SPRINGS   N/A     69  67  94 S10         N/A
ST FRANCIS KS  SUNNY     72  64  78 SW13      30.05F
TRIBUNE KS     SUNNY     68  59  73 S10       30.13
WAKEENEY KS      N/A     70  66  86 MISG        N/A
KIT CARSON CO    N/A     67  63  86 CALM        N/A
YUMA CO          N/A     70  61  73 SW14        N/A
$$


USA.gov is the U.S. government's official web portal to all federal, state and local government web resources and services.